Regional Weather Roundup
Issued by NWS Cleveland, OH

Home | Current Version | Previous Version | Graphics & Text | Print | Product List | Glossary On
Versions: 1 2 3 4 5 6 7 8 9 10 11 12 13 14 15 16 17 18 19 20 21 22 23 24 25 26 27 28 29 30 31 32 33 34 35 36 37 38 39 40 41 42 43 44 45 46 47 48 49 50
000
ASUS41 KCLE 101410
RWRCLE
OHIO REGIONAL WEATHER ROUNDUP
NATIONAL WEATHER SERVICE CLEVELAND, OH
1000 AM EDT THU JUL 10 2014

NOTE: "FAIR" INDICATES FEW OR NO CLOUDS BELOW 12,000 FEET WITH NO
SIGNIFICANT WEATHER AND/OR OBSTRUCTIONS TO VISIBILITY.

OHZ001>008-015>018-024>027-034-035-043-044-101500-
   NORTHWEST OHIO

CITY           SKY/WX    TMP DP  RH WIND       PRES   REMARKS
DEFIANCE       SUNNY     70  56  61 N6        30.15R
FINDLAY        SUNNY     70  59  68 NW7       30.12R
TOLEDO EXPRESS SUNNY     68  57  68 NW6       30.14R
TOLEDO EXEC    PTSUNNY   72  57  59 N6        30.14R
LIMA           SUNNY     69  57  65 N7        30.14R
$$

OHZ009>014-019>023-028>033-038-089-101500-
   NORTHEAST OHIO

CITY           SKY/WX    TMP DP  RH WIND       PRES   REMARKS
CLE-HOPKINS    MOSUNNY   72  58  61 VRB6      30.14R
CLE-LAKEFRONT  MOSUNNY   72  54  53 E9        30.11S
CUY CO. ARPT   MOSUNNY   72  59  64 E7        30.14R
LORAIN-ELYRIA  MOSUNNY   73  62  68 S5        30.13R
ASHTABULA      SUNNY     69  53  56 VRB6      30.15S
AKRON-CANTON   SUNNY     72  59  63 SE7       30.12F
WOOSTER        SUNNY     72  61  68 SE7       30.13S
MANSFIELD      SUNNY     70  60  70 CALM      30.13S
YOUNGSTOWN     MOSUNNY   69  58  67 E7        30.14S
$$

OHZ042-051>053-060>062-070>072-077>081-101500-
  SOUTHWEST OHIO

CITY           SKY/WX    TMP DP  RH WIND       PRES   REMARKS
CINC-COVINGTON MOSUNNY   73  59  61 CALM      30.11R
CINC-LUNKEN    PTSUNNY   72  62  71 NE5       30.11S
HAMILTON       SUNNY     74  60  61 NE5       30.12R
DAYTON         MOSUNNY   71  60  68 N6        30.14R
WRIGHT-PAT AFB SUNNY     71  61  70 N3        30.12R
DAYTON GENERAL SUNNY     73  61  65 N3        30.12R
WILMINGTON     PTSUNNY   70  61  73 N6        30.12R
$$

OHZ036-037-039>041-045>050-054>059-063>069-073>076-082>088-101500-
  CENTRAL AND SOUTHEAST OHIO

CITY           SKY/WX    TMP DP  RH WIND       PRES   REMARKS
COLUMBUS       MOSUNNY   76  62  62 N5        30.10R
OSU AIRPORT    SUNNY     73  61  65 N6        30.11S
BOLTON FIELD   SUNNY     72  63  73 NE5       30.11R
RICKENBACK AFB SUNNY     75  58  55 NE3       30.09F
NEWARK         MOSUNNY   73  62  68 NE3       30.10S
MARION         MOSUNNY   70  63  78 N5        30.13R HAZE
LANCASTER      MOSUNNY   74  62  66 CALM      30.11R
ZANESVILLE     MOSUNNY   71  61  70 CALM      30.10S
NEW PHILLY     SUNNY     71  61  70 SE3       30.12S
$$



USA.gov is the U.S. government's official web portal to all federal, state and local government web resources and services.